Wind_Speed
55 55 56 57 58 58 59 60 61 61 60 60 61 61 62 62 62 63 64 64 65 65 65 65 65 65 66 66 66 66 66 66 67 67 67 66 66 65
53 54 56 56 57 58 58 58 58 59 59 59 60 60 61 62 62 62 63 64 64 64 65 66 65 65 66 67 67 67 67 67 67 67 67 67 68 67
53 54 55 56 57 57 58 58 58 59 59 58 59 60 60 61 61 61 61 62 62 63 64 65 65 65 65 66 67 67 67 68 68 69 69 68 68 69
53 54 55 56 56 56 56 57 58 59 59 58 58 58 59 59 59 60 60 60 61 61 63 64 65 66 66 66 66 67 68 68 68 69 70 70 70 70
52 53 54 54 55 55 55 55 56 56 58 58 57 56 56 56 57 57 58 58 60 60 62 63 64 65 66 67 66 66 66 67 68 68 69 70 71 71
51 51 52 53 54 54 54 54 55 55 55 55 56 55 55 55 56 56 56 56 57 58 60 61 62 63 65 66 66 67 67 67 67 67 69 70 71 72
48 49 50 50 51 52 52 52 52 53 53 53 53 54 55 55 55 55 55 55 55 56 57 58 59 61 62 63 65 66 67 67 68 68 68 69 70 71
48 48 48 48 49 49 50 50 50 51 51 52 52 52 52 53 53 53 54 54 54 55 56 56 57 58 59 61 63 64 65 66 66 67 67 68 69 71
47 47 47 46 46 47 48 48 48 49 49 50 50 49 49 50 51 51 52 52 52 53 55 55 56 57 57 58 60 61 62 64 65 66 67 68 69 70
45 45 45 45 44 44 44 45 46 47 48 49 48 48 48 48 49 49 50 51 52 53 54 54 55 55 56 57 58 58 60 61 63 64 65 66 67 68
43 43 43 43 43 43 43 44 44 45 45 45 46 46 47 47 48 48 49 50 50 50 52 52 52 53 54 55 56 56 57 58 60 60 61 61 63 65
41 41 41 42 42 42 43 42 42 42 43 43 44 44 45 46 47 48 48 48 47 47 49 50 50 51 51 52 53 54 55 55 56 58 58 59 61 63
38 39 39 39 39 39 40 40 40 40 40 40 41 41 42 43 44 45 45 46 46 45 46 47 47 48 49 49 50 51 52 53 53 54 56 57 58 60
36 36 36 36 36 36 37 37 38 38 38 38 39 39 41 41 41 42 43 43 43 44 44 45 45 46 46 46 46 47 49 50 51 52 53 54 55 56
34 33 33 34 34 35 35 36 36 36 36 37 37 38 39 40 40 40 41 41 41 42 42 43 44 44 44 44 44 44 45 46 47 49 49 51 52 52
32 32 32 33 33 34 34 34 34 35 35 35 35 36 38 38 38 39 39 39 40 41 42 42 42 42 42 42 42 42 43 44 45 46 46 47 48 49
32 32 32 32 32 33 33 33 33 34 34 34 35 35 36 37 37 37 38 38 38 39 39 40 40 40 41 41 42 42 42 42 43 44 45 45 46 47
31 31 31 32 32 32 32 32 33 33 34 34 34 35 35 36 36 37 37 38 38 38 37 38 38 39 39 40 41 41 41 42 42 43 43 44 43 44
30 30 31 31 31 31 31 32 32 32 33 34 34 34 35 35 35 35 36 37 37 37 36 37 37 38 39 39 39 41 41 41 42 42 42 42 42 42
30 30 30 30 30 30 30 31 32 32 33 33 34 34 34 35 35 35 35 35 35 35 35 36 36 37 37 38 38 39 41 41 41 41 41 41 41 41
30 29 29 29 29 30 30 30 31 32 32 33 34 34 34 35 35 35 34 34 34 34 34 34 34 35 36 36 36 37 38 39 39 40 40 41 41 40
29 29 29 29 29 29 29 30 30 31 31 32 33 33 34 33 33 33 33 33 33 33 33 33 33 33 34 34 34 35 35 36 37 38 38 39 39 38
29 29 29 29 29 29 30 30 30 30 31 31 32 32 32 32 32 31 31 31 32 32 32 32 32 33 33 33 33 33 33 34 34 35 35 36 37 37
Wind_Direction
270 267 266 267 266 265 265 265 265 265 264 264 264 264 264 263 262 261 260 260 259 258 258 256 255 254 253 253 252 252 252 252 252 251 251 251 251 251
270 268 267 266 266 265 265 265 265 265 265 264 264 264 264 264 263 263 262 261 260 259 258 257 256 255 254 253 252 252 252 252 252 252 251 251 251 250
271 270 268 267 266 265 265 266 266 266 266 265 265 265 264 264 263 263 263 261 261 260 258 258 257 255 255 254 253 252 252 252 252 251 251 251 251 251
272 270 269 268 266 266 267 267 267 266 266 266 265 265 264 263 263 263 262 261 261 260 259 258 257 256 255 254 253 253 253 252 252 252 251 251 251 250
273 271 270 268 268 268 268 268 267 267 266 265 264 264 264 263 263 263 263 262 261 260 259 258 258 257 255 254 254 254 254 253 253 252 252 251 250 250
272 271 270 270 269 269 269 269 268 267 267 266 265 264 264 264 264 263 263 262 261 260 260 259 258 257 256 255 255 254 254 254 254 253 251 251 250 250
273 272 271 271 270 270 269 269 268 267 266 266 266 265 265 265 264 264 263 262 261 261 260 260 259 258 258 257 256 255 254 254 254 254 253 252 252 252
274 273 272 272 270 269 269 268 268 268 267 266 266 266 266 265 264 264 263 263 262 261 261 259 259 258 258 258 257 256 255 254 254 253 253 253 253 253
276 274 273 272 271 270 269 269 269 268 267 266 266 266 266 265 265 265 264 264 264 262 261 260 259 259 258 258 257 257 256 255 254 254 254 254 253 253
276 275 274 272 271 270 269 269 268 268 266 265 266 266 266 267 267 267 266 266 265 264 263 261 260 259 258 259 259 258 256 256 255 254 254 252 252 251
276 275 274 273 272 272 271 270 269 268 267 267 267 268 268 268 269 268 268 267 266 265 265 263 261 260 259 259 259 259 257 256 255 254 254 253 252 251
277 276 275 274 274 273 272 271 271 270 269 268 269 269 269 270 270 270 269 268 267 266 264 264 262 261 260 259 259 259 258 256 255 255 255 255 253 252
278 276 275 274 273 273 272 272 271 271 270 270 269 270 270 271 271 270 268 267 267 266 265 264 263 262 261 260 259 259 258 257 256 256 256 256 255 254
278 277 275 274 273 273 273 273 271 270 270 270 271 272 272 272 271 270 269 269 268 266 265 264 264 263 262 261 260 259 258 258 258 257 257 257 256 256
278 277 276 275 274 274 274 273 273 271 271 271 272 273 273 273 271 271 271 270 269 267 266 265 265 264 263 261 260 259 259 259 260 259 258 258 258 257
279 279 278 278 276 275 275 274 273 272 272 272 272 273 273 273 273 272 271 270 269 268 267 266 265 263 263 262 261 259 260 260 260 260 260 259 259 258
280 280 280 279 277 276 275 274 273 272 273 273 273 274 274 274 274 273 271 270 269 268 267 266 266 264 263 262 262 261 260 261 261 262 262 261 260 259
280 280 280 279 278 277 276 275 274 273 273 274 275 275 275 274 274 273 272 271 270 269 267 266 266 265 263 263 263 262 262 262 262 262 263 263 260 260
280 280 280 280 279 278 277 276 275 274 274 274 274 276 276 275 275 274 273 271 270 268 266 266 266 266 264 263 263 264 263 263 263 263 263 263 261 261
280 280 280 280 280 279 279 278 276 275 274 275 275 276 277 276 276 275 273 271 269 267 266 266 266 266 266 265 263 263 264 265 265 264 263 263 261 261
280 280 280 280 280 280 279 279 279 279 277 276 276 277 278 278 277 276 274 270 269 268 267 266 266 265 265 265 264 264 264 265 265 265 263 262 261 261
280 281 281 280 281 281 281 280 280 280 280 278 277 277 278 278 277 275 273 270 269 269 268 267 265 265 265 265 266 266 265 265 265 265 264 264 264 263
281 282 282 281 282 282 282 282 281 281 281 281 279 279 278 278 277 276 273 271 271 269 268 267 265 265 266 266 267 267 267 266 266 266 266 267 267 266
Height
5583 5583 5583 5583 5583 5583 5584 5584 5585 5586 5587 5586 5585 5585 5584 5585 5586 5587 5589 5591 5593 5596 5599 5602 5605 5609 5613 5617 5620 5624 5628 5632 5636 5640 5645 5649 5654 5658
5567 5567 5566 5567 5566 5566 5567 5567 5567 5567 5569 5570 5568 5568 5567 5568 5568 5569 5571 5573 5575 5578 5580 5583 5587 5590 5593 5597 5601 5605 5609 5613 5617 5622 5626 5630 5635 5639
5552 5552 5551 5550 5550 5550 5550 5550 5550 5550 5551 5552 5551 5551 5551 5551 5551 5552 5553 5555 5557 5559 5562 5565 5568 5571 5574 5578 5582 5586 5590 5594 5598 5602 5606 5611 5616 5621
5537 5536 5535 5534 5534 5534 5534 5534 5533 5533 5533 5534 5535 5534 5534 5534 5535 5535 5536 5537 5539 5541 5543 5546 5549 5552 5556 5559 5563 5567 5571 5575 5579 5583 5588 5594 5598 5601
5522 5521 5520 5519 5519 5518 5518 5517 5517 5517 5516 5517 5518 5518 5518 5518 5518 5519 5519 5520 5522 5523 5525 5528 5531 5534 5537 5540 5544 5547 5552 5557 5561 5564 5567 5572 5577 5581
5507 5506 5505 5504 5504 5503 5502 5502 5501 5501 5500 5501 5502 5502 5502 5502 5502 5503 5503 5504 5505 5506 5507 5510 5512 5515 5518 5522 5527 5530 5533 5536 5540 5544 5548 5552 5556 5561
5493 5492 5491 5490 5488 5488 5487 5487 5486 5485 5485 5486 5486 5486 5486 5486 5486 5486 5487 5488 5489 5490 5491 5493 5496 5498 5500 5503 5506 5509 5513 5517 5520 5524 5528 5532 5536 5540
5479 5477 5476 5475 5474 5473 5472 5471 5471 5471 5470 5471 5471 5471 5471 5471 5471 5471 5471 5472 5474 5476 5475 5477 5478 5480 5482 5485 5487 5490 5494 5497 5500 5504 5508 5512 5516 5519
5464 5463 5462 5461 5459 5459 5458 5457 5457 5456 5456 5456 5456 5456 5456 5457 5457 5457 5456 5456 5457 5457 5457 5460 5461 5463 5465 5467 5469 5471 5474 5477 5480 5484 5487 5491 5494 5498
5451 5449 5448 5447 5446 5445 5444 5443 5443 5442 5442 5442 5443 5443 5442 5441 5441 5441 5441 5441 5441 5441 5441 5443 5445 5446 5448 5450 5451 5453 5456 5458 5461 5464 5467 5470 5473 5477
5438 5436 5435 5434 5433 5431 5431 5430 5430 5429 5428 5428 5428 5428 5427 5427 5426 5426 5426 5426 5426 5427 5426 5427 5429 5430 5432 5434 5435 5436 5438 5440 5443 5445 5448 5451 5454 5457
5425 5424 5422 5421 5419 5418 5417 5417 5417 5416 5415 5415 5414 5414 5413 5413 5412 5411 5411 5411 5411 5412 5412 5411 5413 5413 5416 5419 5419 5420 5421 5423 5425 5428 5430 5433 5435 5438
5413 5412 5410 5408 5407 5406 5405 5404 5404 5403 5403 5402 5402 5401 5400 5400 5399 5397 5397 5397 5397 5398 5398 5397 5398 5398 5400 5403 5404 5405 5406 5407 5409 5411 5414 5416 5418 5420
5402 5400 5399 5397 5396 5394 5393 5393 5392 5391 5391 5390 5390 5389 5388 5387 5386 5385 5384 5383 5383 5383 5383 5383 5383 5384 5385 5387 5389 5391 5391 5392 5394 5396 5398 5399 5401 5403
5391 5389 5388 5386 5385 5384 5383 5382 5381 5380 5379 5379 5378 5377 5376 5375 5374 5373 5372 5371 5371 5370 5370 5370 5370 5371 5372 5374 5375 5377 5378 5379 5379 5381 5382 5384 5385 5387
5381 5379 5378 5376 5375 5374 5372 5371 5370 5369 5369 5368 5367 5366 5365 5363 5362 5361 5360 5359 5359 5359 5358 5358 5358 5358 5359 5361 5362 5364 5365 5366 5366 5367 5368 5369 5371 5372
5371 5370 5368 5366 5365 5363 5362 5361 5360 5359 5358 5358 5357 5356 5354 5352 5351 5349 5348 5347 5347 5347 5347 5347 5346 5346 5347 5348 5350 5351 5352 5353 5354 5354 5355 5356 5357 5358
5361 5360 5358 5356 5355 5354 5352 5351 5350 5349 5348 5347 5346 5345 5344 5342 5340 5338 5337 5336 5335 5335 5335 5335 5335 5335 5336 5337 5338 5338 5340 5340 5341 5342 5342 5343 5345 5345
5352 5350 5349 5347 5345 5344 5342 5341 5340 5339 5338 5336 5335 5334 5333 5331 5330 5328 5326 5325 5324 5324 5324 5323 5323 5323 5324 5326 5327 5326 5327 5328 5329 5329 5330 5331 5332 5333
5343 5341 5339 5338 5336 5334 5333 5331 5330 5328 5327 5326 5325 5323 5322 5321 5319 5317 5316 5314 5313 5313 5313 5313 5312 5312 5313 5313 5315 5315 5314 5315 5316 5317 5318 5318 5320 5320
5333 5332 5330 5329 5327 5325 5323 5322 5320 5318 5316 5315 5314 5313 5311 5310 5308 5306 5305 5304 5303 5302 5302 5302 5302 5301 5301 5301 5302 5303 5303 5303 5303 5304 5305 5306 5307 5309
5324 5323 5321 5319 5318 5316 5314 5312 5310 5308 5306 5305 5303 5302 5300 5299 5297 5296 5295 5294 5293 5292 5292 5292 5291 5291 5291 5291 5291 5292 5292 5292 5292 5292 5292 5293 5294 5296
5315 5313 5312 5310 5308 5306 5304 5302 5301 5299 5297 5295 5293 5291 5290 5288 5287 5286 5285 5284 5283 5282 5282 5282 5281 5281 5281 5281 5281 5281 5281 5281 5281 5281 5282 5281 5282 5283